DW5993 Weather Reports


Display with metric or nautical units.
time (UTC)temp
F
wind
direction
speed
MPH
gust
MPH
rain 1hr
in
rain 24hr
in
rain mn
in
humidity
%
barometer
mb
20210917164716 55 45 1.0 2.0 0.00 0.00 0.00 56 1026.2
20210917163716 54 68 2.0 4.0 0.00 0.00 0.00 58 1025.9
20210917162716 55 135 3.0 4.0 0.00 0.00 0.00 57 1025.9
20210917161716 55 338 2.0 4.0 0.00 0.00 0.00 57 1026.3
20210917160716 52 270 1.0 2.0 0.00 0.00 0.00 60 1025.5
20210917155716 52 270 2.0 3.0 0.00 0.00 0.00 61 1025.5
20210917154716 52 270 1.0 2.0 0.00 0.00 0.00 62 1025.9
20210917153716 52 135 1.0 2.0 0.00 0.00 0.00 60 1025.8
20210917152716 52 270 1.0 1.0 0.00 0.00 0.00 62 1025.3
20210917151716 52 270 1.0 2.0 0.00 0.00 0.00 61 1025.6
20210917150716 51 270 1.0 2.0 0.00 0.00 0.00 63 1025.3
20210917145715 52 0.0 1.0 0.00 0.00 0.00 61 1025.6
20210917144715 51 0.0 0.0 0.00 0.00 0.00 62 1025.1
20210917143715 51 0.0 1.0 0.00 0.00 0.00 63 1025.1
20210917142716 51 0.0 0.0 0.00 0.00 0.00 64 1025.4
20210917141715 51 0.0 1.0 0.00 0.00 0.00 64 1025.3
20210917140715 51 0.0 1.0 0.00 0.00 0.00 66 1025.2
20210917135716 51 338 1.0 1.0 0.00 0.00 0.00 65 1025.2
20210917134716 50 0.0 0.0 0.00 0.00 0.00 65 1025.1
20210917133715 50 0.0 1.0 0.00 0.00 0.00 66 1025.0
20210917132715 50 315 1.0 2.0 0.00 0.00 0.00 67 1025.4
20210917131716 50 315 1.0 2.0 0.00 0.00 0.00 66 1025.6
20210917130715 50 0.0 2.0 0.00 0.00 0.00 66 1025.4
20210917125716 50 0.0 0.0 0.00 0.00 0.00 67 1025.6
20210917124715 50 0.0 0.0 0.00 0.00 0.00 67 1025.5
20210917123716 50 0.0 0.0 0.00 0.00 0.00 69 1025.0
20210917122715 49 0.0 0.0 0.00 0.00 0.00 71 1024.8
20210917121715 48 0.0 0.0 0.00 0.00 0.00 73 1024.7
20210917120716 47 0.0 1.0 0.00 0.00 0.00 75 1024.9
20210917115716 47 0.0 1.0 0.00 0.00 0.00 73 1025.0
20210917114715 48 0.0 0.0 0.00 0.00 0.00 70 1025.3
20210917113715 49 0.0 0.0 0.00 0.00 0.00 69 1025.8
20210917112715 49 0.0 0.0 0.00 0.00 0.00 69 1025.6
20210917111716 49 0.0 0.0 0.00 0.00 0.00 69 1025.4
20210917110715 50 0.0 0.0 0.00 0.00 0.00 67 1025.4
20210917105715 50 0.0 0.0 0.00 0.00 0.00 69 1024.5
20210917104716 50 0.0 0.0 0.00 0.00 0.00 68 1024.0
20210917103717 51 0.0 0.0 0.00 0.00 0.00 66 1023.8
20210917102715 52 0.0 0.0 0.00 0.00 0.00 63 1024.2
20210917101716 52 0.0 0.0 0.00 0.00 0.00 64 1023.9
20210917100716 52 0.0 1.0 0.00 0.00 0.00 63 1023.5
20210917095716 53 0.0 0.0 0.00 0.00 0.00 63 1023.6
20210917094715 54 0.0 1.0 0.00 0.00 0.00 64 1023.7
20210917093715 55 315 1.0 2.0 0.00 0.00 0.00 62 1023.8
20210917092715 55 0.0 0.0 0.00 0.00 0.00 63 1023.5
20210917091715 55 23 1.0 4.0 0.00 0.00 0.00 66 1023.2
20210917090716 56 23 1.0 1.0 0.00 0.00 0.00 64 1022.8
20210917085715 56 0.0 0.0 0.00 0.00 0.00 64 1023.2
20210917084715 56 0.0 0.0 0.00 0.00 0.00 62 1022.5
20210917083715 58 0.0 0.0 0.00 0.00 0.00 60 1022.3
20210917082715 59 0.0 0.0 0.00 0.00 0.00 57 1022.5
20210917081715 60 0.0 0.0 0.00 0.00 0.00 55 1022.1
20210917080716 60 270 1.0 2.0 0.00 0.00 0.00 54 1022.2
20210917075716 60 0.0 1.0 0.00 0.00 0.00 53 1022.4
20210917074715 61 45 1.0 2.0 0.00 0.00 0.00 51 1022.8
20210917073715 62 0 2.0 3.0 0.00 0.00 0.00 50 1022.4
20210917072715 63 68 1.0 4.0 0.00 0.00 0.00 47 1022.2
20210917071715 63 180 1.0 2.0 0.00 0.00 0.00 46 1021.4
20210917070716 62 248 3.0 6.0 0.00 0.00 0.00 45 1020.7
20210917065716 63 0.0 1.0 0.00 0.00 0.00 42 1020.2
20210917064718 63 270 1.0 2.0 0.00 0.00 0.00 41 1019.5
20210917063716 65 0.0 1.0 0.00 0.00 0.00 37 1019.3
20210917062716 66 270 1.0 2.0 0.00 0.00 0.00 35 1019.4
20210917061715 65 270 2.0 2.0 0.00 0.00 0.00 33 1018.6
20210917060715 62 45 3.0 6.0 0.00 0.00 0.00 31 1017.3
20210917055717 63 315 1.0 1.0 0.00 0.00 0.00 35 1016.6
20210917054716 62 315 1.0 2.0 0.00 0.00 0.00 35 1016.0
20210917053716 62 315 1.0 1.0 0.00 0.00 0.00 32 1015.8
20210917052717 63 0.0 1.0 0.00 0.00 0.00 35 1015.7
20210917051716 63 315 1.0 2.0 0.00 0.00 0.00 35 1015.1
20210917050716 63 315 1.0 2.0 0.00 0.00 0.00 34 1015.2
20210917045717 62 315 1.0 2.0 0.00 0.00 0.00 36 1015.0
20210917044716 63 315 1.0 1.0 0.00 0.00 0.00 36 1014.5
20210917043716 63 315 1.0 2.0 0.00 0.00 0.00 36 1014.4
20210917042717 63 315 1.0 1.0 0.00 0.00 0.00 36 1013.9
20210917041716 63 315 1.0 1.0 0.00 0.00 0.00 34 1013.9
20210917040716 63 315 1.0 1.0 0.00 0.00 0.00 36 1014.0
20210917035716 63 315 1.0 1.0 0.00 0.00 0.00 37 1013.6
20210917034716 64 338 1.0 2.0 0.00 0.00 0.00 37 1013.5
20210917033716 65 0.0 1.0 0.00 0.00 0.00 36 1013.4
20210917032716 63 315 1.0 2.0 0.00 0.00 0.00 38 1012.9
20210917031716 64 315 1.0 2.0 0.00 0.00 0.00 38 1013.1
20210917030716 64 315 1.0 2.0 0.00 0.00 0.00 36 1012.7
20210917025716 64 315 1.0 2.0 0.00 0.00 0.00 37 1012.2
20210917024716 64 270 1.0 1.0 0.00 0.00 0.00 37 1012.1
20210917023716 65 0.0 1.0 0.00 0.00 0.00 36 1011.9
20210917022716 65 270 1.0 1.0 0.00 0.00 0.00 38 1011.6
20210917021716 66 270 1.0 1.0 0.00 0.00 0.00 36 1011.4
20210917020716 66 0.0 1.0 0.00 0.00 0.00 35 1011.2
20210917015716 67 270 1.0 1.0 0.00 0.00 0.00 33 1011.0
20210917014716 67 270 1.0 1.0 0.00 0.00 0.00 35 1010.9
20210917013716 68 270 1.0 1.0 0.00 0.00 0.00 34 1010.7
20210917012717 68 0.0 1.0 0.00 0.00 0.00 35 1010.2
20210917011716 70 315 1.0 2.0 0.00 0.00 0.00 34 1008.9
20210917010717 71 315 1.0 2.0 0.00 0.00 0.00 34 1008.9
20210917005716 72 315 1.0 2.0 0.00 0.00 0.00 33 1009.0
20210917004717 74 315 1.0 1.0 0.00 0.00 0.00 32 1009.3
20210917003716 72 315 2.0 2.0 0.00 0.00 0.00 36 1008.9
20210917002717 72 158 1.0 2.0 0.00 0.00 0.00 37 1008.9
20210917001716 73 158 1.0 1.0 0.00 0.00 0.00 38 1009.0
20210917000716 75 0.0 1.0 0.00 0.00 0.00 36 1009.2
20210916235716 77 158 1.0 1.0 0.00 0.00 0.00 38 1009.7
20210916234716 79 158 1.0 1.0 0.00 0.00 0.00 42 1010.1
20210916233717 81 0.0 0.0 0.00 0.00 0.00 37 1010.3
20210916232716 82 0.0 0.0 0.00 0.00 0.00 35 1010.9
20210916231716 82 158 1.0 1.0 0.00 0.00 0.00 31 1011.1
20210916230716 82 0.0 1.0 0.00 0.00 0.00 36 1011.2
20210916225716 79 0.0 0.0 0.00 0.00 0.00 38 1010.9
20210916224716 77 0.0 0.0 0.00 0.00 0.00 40 1010.1
20210916223716 77 158 1.0 1.0 0.00 0.00 0.00 39 1009.9
20210916222716 78 0.0 1.0 0.00 0.00 0.00 40 1010.6
20210916221716 78 0.0 0.0 0.00 0.00 0.00 41 1010.7
20210916220716 78 0.0 0.0 0.00 0.00 0.00 40 1010.6
20210916215716 79 0.0 0.0 0.00 0.00 0.00 37 1011.0
20210916214716 80 158 1.0 1.0 0.00 0.00 0.00 37 1011.0
20210916213716 82 0.0 0.0 0.00 0.00 0.00 32 1011.2
20210916212716 81 0.0 1.0 0.00 0.00 0.00 33 1011.3
20210916211716 82 0.0 0.0 0.00 0.00 0.00 34 1011.5
20210916210716 81 0.0 0.0 0.00 0.00 0.00 33 1011.4
20210916205717 84 0.0 0.0 0.00 0.00 0.00 29 1012.1
20210916204716 83 0.0 1.0 0.00 0.00 0.00 30 1011.9
20210916203716 83 0.0 0.0 0.00 0.00 0.00 32 1012.0
20210916202716 82 0.0 1.0 0.00 0.00 0.00 32 1012.2
20210916201716 81 0.0 0.0 0.00 0.00 0.00 28 1012.1
20210916200716 83 158 1.0 1.0 0.00 0.00 0.00 29 1012.6
20210916195716 85 0.0 1.0 0.00 0.00 0.00 25 1013.0
20210916194716 86 158 1.0 1.0 0.00 0.00 0.00 20 1013.1
20210916193716 84 0.0 1.0 0.00 0.00 0.00 22 1013.0
20210916192716 85 158 3.0 4.0 0.00 0.00 0.00 15 1013.2
20210916191716 85 135 1.0 1.0 0.00 0.00 0.00 17 1012.9
20210916190716 85 113 1.0 2.0 0.00 0.00 0.00 15 1013.2
20210916185716 85 90 1.0 2.0 0.00 0.00 0.00 16 1012.9
20210916184716 86 158 2.0 4.0 0.00 0.00 0.00 13 1013.0
20210916183716 87 135 4.0 7.0 0.00 0.00 0.00 13 1013.1
20210916182716 87 158 4.0 6.0 0.00 0.00 0.00 13 1013.5
20210916181716 87 158 4.0 7.0 0.00 0.00 0.00 14 1013.5
20210916180716 86 248 1.0 3.0 0.00 0.00 0.00 13 1013.7
20210916175715 87 90 1.0 2.0 0.00 0.00 0.00 13 1013.9
20210916174716 86 158 1.0 2.0 0.00 0.00 0.00 17 1014.2
20210916173716 86 90 3.0 5.0 0.00 0.00 0.00 15 1013.9
20210916172716 85 90 3.0 4.0 0.00 0.00 0.00 19 1013.3
20210916171716 85 135 3.0 4.0 0.00 0.00 0.00 19 1014.1
20210916170716 86 90 3.0 4.0 0.00 0.00 0.00 16 1014.9
20210916165716 86 180 1.0 4.0 0.00 0.00 0.00 16 1014.7